Location: Bern/Schweiz
(46.9381°N, 7.4364°E)
Time: 22:48:50
(UTC+01:00)

ISS - Pass Details

Date: 29 September 2020
Orbit: 417 x 420 km, 51.6° (Epoch: 27 October)

Event Time Altitude Azimuth Distance (km) Brightness Sun altitude
Rises 21:04:01 0° 294° (WNW) 2,370 1.7 -19.5°
Reaches altitude 10° 21:06:09 10° 299° (WNW) 1,505 0.2 -19.9°
Enters shadow 21:09:24 55° 11° (N) 511 -3.4 -20.4°
